Tracking 29892 objects as of 21-Nov-2024
HD Live streaming from Space Station
objects crossing your sky now

STARLINK-1320

Track STARLINK-1320 now!
10-day predictions
STARLINK-1320 is classified as:


NORAD ID: 45572
Int'l Code: 2020-025AT
Perigee: 545.6 km
Apogee: 550.1 km
Inclination: 53.1 °
Period: 95.5 minutes
Semi major axis: 6918 km
RCS: Unknown
Launch date: April 22, 2020
Source: United States (US)
Launch site: AIR FORCE EASTERN TEST RANGE (AFETR)
Your satellite tracking list
Your tracking list is empty




NASA's NSSDC Master Catalog

Two Line Element Set (TLE):
1 45572U 20025AT  24325.21927362  .00042824  00000-0  27154-2 0  9991
2 45572  53.0544  41.4150 0003193  48.5777 311.5487 15.08524336254079
Source of the keplerian elements: AFSPC